#timestamp,LO_Frequency,Hit,StdDev 
1611864015.1,286046619.0,N
1611864016.0,286046619.0,N
1611864035.8,286046623.1,N
1611864055.6,286046592.3,N
1611864075.5,286046596.2,N
1611864095.3,286046592.7,N
1611864115.2,286046595.1,N
1611864135.9,286046590.1,N
1611864155.7,286046588.8,N
1611864175.6,286046627.2,N
1611864195.4,286046630.9,N
1611864215.2,286046628.6,N
1611864235.1,286046629.8,N
1611864236.0,286046629.8,N
1611864255.8,286046623.7,N
1611864275.7,286046624.9,N
1611864295.5,286046624.1,N
1611864315.3,286046624.0,N
1611864335.2,286046847.1,N
1611864355.0,286047071.5,N
1611864355.9,286047071.5,N
1611864375.7,286046622.0,N
1611864395.6,286046619.3,N
1611864445.5,286046620.0,E
1611864455.4,286047192.3,N
1611864475.2,286047398.0,P
1611864495.1,286047453.8,P
1611864496.0,286047453.8,Y
1611864515.8,286047100.9,P
1611864535.7,286047106.4,N
1611864555.5,286047105.3,N
1611864575.3,286047109.1,N
1611864595.2,286047106.1,N
1611864615.0,286047107.8,N
1611864615.9,286047107.8,N
1611864635.8,286047102.1,N
1611864655.6,286047104.1,N
1611864675.4,286047109.4,N
1611864695.3,286047164.6,N
1611864715.1,286047106.1,N
1611864735.8,286047102.2,N
1611864755.7,286047104.9,N
1611864775.5,286047103.2,N
1611864795.4,286047101.0,N
1611864815.2,286044318.6,Y
1611864835.0,286047687.3,P
1611864835.9,286047687.3,N
1611864855.8,286047156.8,N
1611864875.6,286047160.2,N
1611864895.5,286047164.1,N
1611864915.3,286047163.0,N
1611864935.1,286047397.5,N
1611864955.9,286047126.4,N
1611864975.7,286047155.3,N
1611864995.5,286046992.7,N
1611865015.4,286050610.7,Y
1611865035.2,286050353.7,P
1611865055.1,286050357.5,N
1611865056.0,286050357.5,N
1611865075.8,286050360.7,N
1611865095.6,286050358.4,N
1611865115.5,286050360.7,N
1611865135.3,286051327.8,Y
1611865155.1,286044848.0,P
1611865175.9,286044619.2,N
1611865195.7,286044640.2,N
1611865215.6,286044598.3,N
1611865235.4,286042959.0,N
1611865255.2,286044597.1,N
1611865275.1,286042949.6,N
1611865276.0,286042949.6,N
1611865295.8,286043822.9,N
1611865315.7,286043819.6,N
1611865335.5,286043818.8,N
1611865355.3,286044204.9,N
1611865375.2,286044550.6,N
1611865395.0,286044548.3,N
1611865395.9,286044548.3,N
1611865415.7,286044546.5,N
1611865435.6,286044645.4,N
1611865455.4,286044545.9,N
1611865475.3,286044549.5,N
1611865495.1,286044547.4,N
1611865496.0,286044547.4,N
1611865515.8,286044637.2,N
1611865535.7,286044542.4,N
1611865555.5,286044545.1,N
1611865575.4,286044640.5,N
1611865595.2,286044539.6,N
1611865615.0,286044540.2,N
1611865615.9,286044540.2,N
1611865635.8,286044544.4,N
1611865655.6,286045880.2,N
1611865675.5,286045889.2,N
1611865695.3,286045890.0,N
1611865715.1,286045905.3,N
1611865735.9,286045883.9,N
1611865755.7,286045884.0,N
1611865775.5,286045900.7,N
1611865795.4,286045893.5,N
1611865815.2,286045890.8,N
1611865835.1,286045983.2,N
1611865836.0,286045983.2,N
1611865855.8,286045890.5,N
1611865875.6,286045890.3,N
1611865895.5,286045982.5,N
1611865915.3,286045888.3,N
1611865935.2,286045873.6,N
1611865955.9,286045870.4,N
1611865975.7,286045867.9,N
1611865995.6,286045866.5,N
1611866015.4,286045865.3,N
1611866035.2,286045867.8,N
1611866055.1,286045869.3,N
1611866056.0,286045869.3,N
1611866075.8,286045866.7,N
1611866095.7,286045867.4,N
1611866115.5,286045869.3,N
1611866135.3,286045871.7,N
1611866155.2,286045868.2,N
1611866175.0,286045868.1,Y
1611866175.9,286045868.1,P
1611866195.8,286047060.6,N
1611866215.6,286047057.6,N
1611866235.4,286047059.0,N
1611866255.3,286047059.7,N
1611866275.1,286047060.4,N
1611866295.8,286047063.9,N
1611866315.7,286047066.7,N
1611866335.5,286047072.9,N
1611866355.4,286047074.1,N
1611866375.2,286047072.2,N
1611866395.0,286047069.5,N
1611866395.9,286047069.5,N
1611866415.8,286047063.7,N
1611866435.6,286047068.2,N
1611866455.4,286047069.5,N
1611866475.3,286047063.5,N
1611866495.1,286047066.2,N
1611866515.9,286047063.8,N
1611866535.7,286047069.4,N
1611866555.5,286047070.8,N
1611866575.4,286047070.5,N
1611866595.2,286047073.1,N
1611866615.0,286047072.8,N
1611866615.9,286047072.8,N
1611866635.8,286047066.9,N
1611866655.6,286047064.9,N
1611866675.5,286047062.4,N
1611866695.3,286047065.6,N
1611866715.1,286047062.8,N
1611866735.9,286047068.2,N
1611866755.7,286047064.0,Y
1611866775.5,286046993.0,P
1611866795.4,286046990.2,N
1611866815.2,286046994.3,N
1611866835.1,286046994.7,N
1611866836.0,286046994.7,N
1611866855.8,286046997.5,N
1611866875.6,286046993.9,N
1611866895.5,286046994.7,N
1611866915.3,286046997.0,N
1611866935.1,286047005.7,N
1611866955.9,286047003.5,N
1611866975.7,286046997.6,N
1611866995.6,286046995.6,N
1611867015.4,286046995.4,N
1611867035.2,286046998.1,N
1611867055.1,286046999.8,N
1611867056.0,286046999.8,N
1611867075.8,286046989.7,N
1611867095.6,286046989.1,N
1611867115.5,286046988.5,N
1611867135.3,286046994.7,N
1611867155.2,286046999.2,N
1611867175.9,286047003.8,N
1611867195.7,286046999.8,N
1611867215.6,286047005.6,N
1611867235.4,286046999.7,N
1611867255.3,286046996.7,N
1611867275.1,286046995.4,N
1611867276.0,286046995.4,N
1611867295.8,286046995.9,N
1611867315.7,286047001.4,N
1611867335.5,286047000.1,N
1611867355.3,286047000.9,N
1611867375.2,286047001.1,N
1611867395.0,286047004.3,N
1611867395.9,286047004.3,N
1611867415.8,286047004.1,N
1611867435.6,286047003.2,N
1611867455.4,286047005.7,N
1611867475.3,286047007.2,N
1611867495.1,286047007.7,N
1611867515.8,286047009.8,N
1611867535.7,286047002.1,N
1611867555.5,286047000.0,N
1611867575.4,286047006.8,N
1611867595.2,286047007.7,N
